星链-36168(STARLINK-36168)

导读

STARLINK-36168(NORAD编号68677)是美国太空探索技术公司(SpaceX)部署的星链低轨互联网卫星,采用Starlink v1.5平台。该卫星运行于近地轨道,轨道倾角53.218°,近地点约539公里、远地点约541公里,轨道周期约95.4分钟,目前状态正常工作。作为星链星座的组成部分,它依托相控阵天线、正交频分复用等技术提供全球卫星互联网接入服务,相比传统同步卫星互联网具备更低时延优势,可支持宽带通信、直连手机等应用场景。

Basic Information
目录编号:
68677
目录名称:
STARLINK-36168
国际标识:
2026-077R
轨道中心:
EARTH
卫星名称:
星链-36168
卫星全名:
星链-36168(STARLINK-36168)
卫星状态:
在轨 (已飞行155 天)
发射日期:
2026-04-11 UTC
国别 :
美国 (US)
星等 :
--
This satellite is enrolled in the Space Conjunction Data Service (SCDS) and the current flight risk assessment level is: No High Risk
Orbit Information
数据来源 国际轨道数据
星历时间: 2026-09-13T10:56:46+0800
9小时前
查看轨道信息
半长轴: 6843.686km
偏心率: 0.0001351
轨道倾角: 97.285°
近地点辐角 108.716°
升交点赤经 126.140°
平近点角 251.423°
近地点: 464.624km
远地点: 466.474km
周期: 93.906分钟
每日圈数: 15.334432
Detailed Information
固有亮度:
5
最大亮度:
2.5
卫星平台:
Starlink V1.0
覆盖范围:
全球
运营商:
太空探索技术公司
运营商所在国:
美国
制造商(研发单位):
太空探索技术公司
制造商所在国:
美国
使用方式:
暂无
Satellite Introduction
Starlink 计划是 SpaceX 推出的全球卫星互联网项目,通过发射低轨道卫星,为全球尤其是偏远地区提供高速、低延迟的互联网服务。自 2019 年起,Starlink 已部署数千颗卫星,旨在缩小全球数字鸿沟,推动互联网普及。该项目还为军事、航空等行业提供通信支持,带来广泛经济效益。
2D Orbit Map
3D Orbit Map
Orbit Altitude Analysis Chart
Orbit Inclination Analysis Chart
Orbit Comprehensive Analysis Chart
View Comprehensive Chart
Conjunction Data List
Event ID Objects TCA Miss Dist (km) Collision Risk Probability Collision Risk Index (CRI) Action
CDM_260913-165704-831706-867721
2026-09-13T
16:57:04+0000
2.591 km
极远距离
1.641749E-6 低风险 0.39
CDM_260914-144105-832106-867722
2026-09-14T
14:41:33+0000
2.714 km
极远距离
1.52497E-6 低风险 0.39
CDM_260908-144505-284406-867723
2026-09-08T
14:45:46+0000
2.743 km
极远距离
1.495877E-6 低风险 0.38
CDM_260913-161504-607906-867721
2026-09-13T
16:15:14+0000
2.802 km
极远距离
1.460847E-6 低风险 0.38
CDM_260913-180004-859306-867721
2026-09-13T
18:00:47+0000
2.779 km
极远距离
1.436794E-6 低风险 0.38
CDM_260915-085004-830006-867721
2026-09-15T
08:50:11+0000
2.963 km
极远距离
1.344719E-6 低风险 0.38
CDM_260914-015104-811706-867721
2026-09-14T
01:51:55+0000
2.899 km
极远距离
1.33307E-6 低风险 0.37
CDM_260915-042905-816006-867721
2026-09-15T
04:29:40+0000
2.979 km
极远距离
1.060857E-6 低风险 0.36
CDM_260913-191905-259906-867721
2026-09-13T
19:19:20+0000
2.794 km
极远距离
8.765573E-7 极低风险 0.34
Miss Distance Evolution Trend with All Objects
Collision Probability Evolution Trend with All Objects